[[{"header":{"parameterUnit":"m.s-1","parameterCategory":1,"la1":30.2991,"la2":30.254,"lo1":-89.0895,"lo2":-89.0444,"dy":0.0017,"dx":0.0017,"nx":28,"ny":28,"refTime":"2023-08-24T09:00:00:Z","depth":0,"parameterNumber":2,"parameterNumberName":"U-component_of_WINDS"},"data":[0,0,0,0,0,0,0,0,0,0,0,0,0,0,0,0,0,0,0,0,0,0,0,0,0,0,0,0,0,0,0,0,0,0,0,0,0,0,0,0,0,0,0,0,0,0,0,0,0,0,0,0,0,0,0,0,0,0,-0.7145,-0.7144,0,-0.7105,-0.7104,-0.7104,-0.7063,-0.7063,-0.7062,-0.7062,-0.7021,-0.702,-0.702,0,0,0,0,0,0,0,0,0,0,0,0,0,-0.7187,-0.7186,-0.7145,-0.7144,-0.7144,-0.7105,-0.7104,-0.7104,-0.7063,-0.7063,-0.7062,-0.7061,-0.7021,-0.702,-0.702,0,0,0,0,0,0,0,0,0,0,0,0,0,-0.716,-0.7186,-0.7145,-0.7119,-0.7116,-0.7105,-0.7104,-0.7103,-0.7063,-0.7063,-0.7062,-0.7061,-0.7021,-0.702,-0.702,-0.7031,0,0,-0.7017,-0.7017,0,0,0,0,0,0,0,0,-0.7161,-0.7158,-0.7123,-0.7121,-0.7117,-0.7088,-0.7104,-0.7079,-0.7064,-0.7083,-0.7062,-0.7061,-0.7044,-0.7041,-0.7035,-0.7029,-0.7027,-0.7017,-0.7016,-0.7016,-0.7016,0,0,0,0,0,0,0,-0.7163,-0.716,-0.7129,-0.7123,-0.7119,-0.7109,-0.7105,-0.7099,-0.7069,-0.7082,-0.7079,-0.7074,-0.7042,-0.7036,-0.7034,-0.7026,-0.7017,-0.7016,-0.7016,-0.7015,-0.7027,-0.7028,0,0,0,0,0,0,-0.7169,-0.7162,-0.713,-0.7128,-0.7138,-0.7109,-0.7104,-0.7098,-0.7069,-0.7063,-0.7075,-0.7073,-0.7038,-0.7035,-0.7033,-0.7044,-0.7016,-0.7015,-0.7015,-0.7026,-0.7028,-0.7028,0,0,0,0,0,0,-0.717,-0.7167,-0.7132,-0.7144,-0.7139,-0.7109,-0.7103,-0.7098,-0.7092,-0.7064,-0.7058,-0.7075,-0.7037,-0.7034,-0.7032,-0.7042,-0.7015,-0.7014,-0.7026,-0.7027,-0.7028,-0.7067,0,0,0,0,0,0,-0.7172,-0.7167,-0.7171,-0.7144,-0.7138,-0.7131,-0.7104,-0.7098,-0.7091,-0.7087,-0.7062,-0.7057,-0.7037,-0.7033,-0.7031,-0.704,-0.7013,-0.7024,-0.7026,-0.7028,-0.7064,-0.7069,-0.7073,0,0,0,0,0,-0.7173,-0.7183,-0.7171,-0.7168,-0.7142,-0.7132,-0.7128,-0.7105,-0.7092,-0.7095,-0.7077,-0.7058,-0.7041,-0.7033,-0.703,-0.704,-0.7024,-0.7026,-0.7027,-0.7062,-0.7068,-0.7073,0,0,0,0,0,0,-0.7212,-0.7179,-0.7166,-0.7167,-0.7153,-0.7125,-0.7129,-0.7111,-0.71,-0.7097,-0.7068,-0.7063,-0.7064,-0.7052,-0.7043,-0.7049,-0.703,-0.7031,-0.7057,-0.7063,-0.7067,-0.707,-0.7013,0,0,0,0,0,-0.7221,-0.7215,-0.7187,-0.7191,-0.7185,-0.7158,-0.7153,-0.7136,-0.7119,-0.7113,-0.7095,-0.708,-0.7071,-0.7066,-0.7057,-0.7062,-0.7057,-0.7067,-0.7072,-0.7076,-0.7077,-0.708,-0.7085,-0.7035,-0.7035,-0.7035,0,0,-0.7239,-0.722,-0.7219,-0.7199,-0.7185,-0.718,-0.7153,-0.7149,-0.7145,-0.7112,-0.7109,-0.7096,-0.7077,-0.7079,-0.7079,-0.7068,-0.709,-0.7078,-0.7081,-0.7081,-0.7082,-0.7087,-0.7091,-0.7036,-0.7036,-0.7035,0,0,-0.727,-0.7255,-0.7257,-0.7244,-0.7224,-0.7207,-0.7207,-0.7182,-0.7172,-0.7168,-0.7144,-0.7139,-0.7125,-0.7113,-0.7105,-0.7132,-0.7113,-0.7129,-0.7152,-0.7155,-0.7159,-0.7163,-0.7173,-0.7177,-0.7131,-0.7131,-0.7131,0,-0.7295,-0.7286,-0.726,-0.7258,-0.725,-0.722,-0.7223,-0.7211,-0.719,-0.7185,-0.7174,-0.7156,-0.7141,-0.714,-0.7147,-0.7141,-0.7141,-0.7132,-0.7161,-0.7164,-0.7167,-0.7176,-0.718,-0.7133,-0.7133,-0.7133,-0.7132,0,-0.7318,-0.7313,-0.7317,-0.7297,-0.7289,-0.7289,-0.7264,-0.726,-0.7243,-0.7227,-0.7224,-0.7206,-0.7192,-0.7191,-0.7175,-0.7188,-0.7182,-0.7166,-0.7146,-0.7174,-0.7182,-0.7185,-0.7136,-0.7135,-0.7135,-0.7134,0,0,-0.7372,-0.7338,-0.734,-0.7331,-0.7307,-0.7302,-0.7301,-0.7288,-0.7285,-0.7271,-0.727,-0.7258,-0.7244,-0.7235,-0.7217,-0.722,-0.7243,-0.7204,-0.7203,-0.7212,-0.7257,-0.7269,-0.7274,-0.7231,-0.7231,-0.7232,-0.7258,0,-0.7399,-0.7395,-0.7372,-0.7375,-0.737,-0.7341,-0.734,-0.7326,-0.7311,-0.7305,-0.7288,-0.7281,-0.7262,-0.7256,-0.7257,-0.724,-0.7252,-0.7238,-0.7229,-0.723,-0.7235,-0.7278,-0.7291,-0.7317,-0.7261,-0.7262,-0.7262,0,-0.743,-0.7418,-0.742,-0.7397,-0.7394,-0.7393,-0.738,-0.7374,-0.7357,-0.7346,-0.7336,-0.7317,-0.7314,-0.7295,-0.7292,-0.7283,-0.7278,-0.7269,-0.727,-0.7268,-0.7248,-0.7278,-0.7324,-0.7329,-0.7267,-0.7267,-0.7266,0,-0.747,-0.7454,-0.7454,-0.7446,-0.7419,-0.7419,-0.7408,-0.739,-0.7384,-0.7372,-0.7368,-0.7356,-0.735,-0.7341,-0.7319,-0.7307,-0.7318,-0.7297,-0.7309,-0.731,-0.7313,-0.7313,-0.736,-0.731,-0.731,-0.7309,-0.7309,0,-0.7502,-0.7505,-0.7471,-0.7471,-0.7473,-0.7447,-0.745,-0.7436,-0.7421,-0.7418,-0.7392,-0.739,-0.7361,-0.7355,-0.7338,-0.7338,-0.7335,-0.7326,-0.7322,-0.7329,-0.733,-0.7326,-0.7323,-0.731,-0.731,-0.731,-0.731,0,-0.7548,-0.7525,-0.7523,-0.7497,-0.749,-0.7493,-0.7471,-0.747,-0.7454,-0.745,-0.7448,-0.7422,-0.7414,-0.7391,-0.7377,-0.7366,-0.7371,-0.7362,-0.7377,-0.7374,-0.7387,-0.7387,-0.7433,-0.7438,-0.7384,-0.7385,-0.7385,0,-0.757,-0.7571,-0.7546,-0.7542,-0.7532,-0.7526,-0.7519,-0.7493,-0.7488,-0.7469,-0.747,-0.746,-0.7451,-0.744,-0.742,-0.741,-0.7401,-0.7418,-0.7399,-0.7406,-0.7401,-0.7402,-0.7402,-0.7422,-0.7423,-0.7423,-0.7424,0,-0.7613,-0.7602,-0.7593,-0.7581,-0.7574,-0.7563,-0.7551,-0.7549,-0.7521,-0.7516,-0.7507,-0.75,-0.7486,-0.7477,-0.7463,-0.7452,-0.7433,-0.743,-0.7432,-0.7439,-0.7448,-0.7444,-0.7389,-0.7429,-0.7428,-0.7428,-0.7428,-0.7427,-0.7648,-0.7648,-0.763,-0.7622,-0.761,-0.7599,-0.7597,-0.758,-0.7573,-0.7559,-0.7545,-0.7538,-0.7522,-0.7501,-0.7491,-0.7486,-0.7476,-0.7479,-0.748,-0.7482,-0.7485,-0.7449,-0.7483,-0.7483,-0.7483,-0.7483,-0.7483,0,-0.769,-0.7677,-0.7669,-0.7653,-0.7647,-0.7629,-0.7615,-0.7611,-0.7606,-0.7592,-0.7583,-0.7574,-0.7565,-0.7544,-0.7534,-0.7533,-0.7525,-0.7531,-0.7531,-0.7529,-0.7494,-0.7494,-0.7539,-0.7539,-0.7539,-0.7539,-0.7539,-0.7539,-0.7711,-0.771,-0.7697,-0.7691,-0.7678,-0.7671,-0.7665,-0.7655,-0.7644,-0.7634,-0.7627,-0.7613,-0.7597,-0.7585,-0.7576,-0.757,-0.7568,-0.7577,-0.7569,-0.7537,-0.7532,-0.7527,-0.7526,-0.7577,-0.7577,-0.7604,-0.7605,-0.7605]},{"header":{"parameterUnit":"m.s-1","parameterCategory":1,"la1":30.2991,"la2":30.254,"lo1":-89.0895,"lo2":-89.0444,"dy":0.0017,"dx":0.0017,"nx":28,"ny":28,"refTime":"2023-08-24T09:00:00:Z","depth":0,"parameterNumber":3,"parameterNumberName":"V-component_of_WINDS"},"data":[0,0,0,0,0,0,0,0,0,0,0,0,0,0,0,0,0,0,0,0,0,0,0,0,0,0,0,0,0,0,0,0,0,0,0,0,0,0,0,0,0,0,0,0,0,0,0,0,0,0,0,0,0,0,0,0,0,0,2.8588,2.8587,0,2.8543,2.8542,2.8542,2.849,2.8489,2.8488,2.8488,2.8439,2.8439,2.8438,0,0,0,0,0,0,0,0,0,0,0,0,0,2.8627,2.8627,2.8588,2.8587,2.8587,2.8543,2.8542,2.8541,2.849,2.8489,2.8488,2.8487,2.844,2.8439,2.8438,0,0,0,0,0,0,0,0,0,0,0,0,0,2.8599,2.8627,2.8588,2.8556,2.8552,2.8543,2.8542,2.8541,2.849,2.8489,2.8488,2.8487,2.844,2.8439,2.8438,2.8456,0,0,2.8435,2.8435,0,0,0,0,0,0,0,0,2.8601,2.8598,2.8561,2.8558,2.8554,2.8521,2.8538,2.8513,2.8491,2.8514,2.8488,2.8486,2.8467,2.8464,2.8458,2.8454,2.8451,2.8435,2.8435,2.8435,2.8434,0,0,0,0,0,0,0,2.8603,2.8599,2.857,2.8561,2.8556,2.8543,2.8538,2.8533,2.8497,2.8512,2.8508,2.8503,2.8465,2.8459,2.8457,2.8451,2.8435,2.8435,2.8434,2.8434,2.8458,2.8459,0,0,0,0,0,0,2.861,2.8601,2.8571,2.8568,2.8575,2.8543,2.8537,2.8533,2.8497,2.8491,2.8504,2.8501,2.8461,2.8458,2.8455,2.8472,2.8435,2.8434,2.8433,2.8457,2.8458,2.8459,0,0,0,0,0,0,2.8611,2.8608,2.8573,2.8584,2.8578,2.8544,2.8539,2.8532,2.8526,2.8492,2.8485,2.8505,2.846,2.8456,2.8456,2.847,2.8433,2.8433,2.8455,2.8457,2.8459,2.8508,0,0,0,0,0,0,2.8612,2.8608,2.8615,2.8584,2.8578,2.8576,2.854,2.8532,2.8525,2.852,2.849,2.8484,2.8459,2.8457,2.8455,2.8468,2.8432,2.8454,2.8456,2.8458,2.8505,2.8511,2.8517,0,0,0,0,0,2.8614,2.863,2.8616,2.8612,2.8586,2.8577,2.8573,2.8544,2.8526,2.8532,2.8511,2.8485,2.8469,2.8458,2.8455,2.8468,2.8453,2.8455,2.8458,2.8502,2.851,2.8516,0,0,0,0,0,0,2.8663,2.8626,2.8609,2.8616,2.86,2.8568,2.8575,2.8553,2.8541,2.8537,2.8501,2.8494,2.8498,2.8483,2.8471,2.8483,2.8457,2.8459,2.8492,2.8499,2.8505,2.8508,2.8431,0,0,0,0,0,2.8675,2.8671,2.8639,2.8648,2.8641,2.861,2.8604,2.8584,2.8565,2.8558,2.8535,2.8518,2.8509,2.8503,2.8493,2.8503,2.8495,2.851,2.8516,2.8521,2.8523,2.8526,2.8532,2.8468,2.8468,2.8468,0,0,2.8698,2.8678,2.8677,2.8657,2.8642,2.8638,2.8604,2.8601,2.8598,2.8557,2.8555,2.8539,2.8517,2.8522,2.8523,2.8509,2.8539,2.8524,2.8529,2.8528,2.8529,2.8536,2.8541,2.8469,2.8469,2.8469,0,0,2.874,2.8725,2.873,2.8716,2.8694,2.8673,2.8675,2.8646,2.8634,2.8632,2.8601,2.8597,2.8582,2.8567,2.8558,2.8595,2.857,2.8592,2.8622,2.8626,2.8631,2.8635,2.8647,2.8652,2.8595,2.8595,2.8595,0,2.8772,2.8765,2.8736,2.8735,2.8727,2.8691,2.8696,2.8684,2.8659,2.8654,2.864,2.862,2.8603,2.8604,2.8613,2.8607,2.8607,2.8595,2.8633,2.8637,2.864,2.8651,2.8656,2.8597,2.8597,2.8597,2.8596,0,2.8806,2.8802,2.8809,2.8787,2.878,2.8782,2.8752,2.8749,2.8729,2.8709,2.8708,2.8686,2.867,2.8669,2.865,2.8667,2.8659,2.864,2.8613,2.865,2.8659,2.8663,2.8601,2.86,2.8599,2.8599,0,0,2.8875,2.8837,2.884,2.883,2.8803,2.8799,2.88,2.8786,2.8783,2.8768,2.8767,2.8755,2.8737,2.8726,2.8705,2.8708,2.8738,2.8688,2.8687,2.8697,2.8754,2.8769,2.8774,2.8722,2.8723,2.8724,2.8756,0,2.891,2.891,2.8883,2.889,2.8885,2.8852,2.8852,2.8836,2.8818,2.8811,2.8791,2.8783,2.876,2.8753,2.8756,2.8734,2.8749,2.8731,2.872,2.872,2.8725,2.8779,2.8794,2.8825,2.876,2.876,2.8761,0,2.8951,2.8939,2.8945,2.8919,2.8916,2.8917,2.8901,2.8896,2.8876,2.8863,2.8852,2.8828,2.8826,2.8803,2.8799,2.8788,2.8782,2.877,2.8771,2.8767,2.8741,2.8776,2.8835,2.8839,2.8767,2.8766,2.8766,0,2.8999,2.8985,2.8986,2.8979,2.8948,2.8949,2.8937,2.8916,2.8909,2.8896,2.8891,2.8877,2.887,2.8859,2.8832,2.8818,2.8831,2.8805,2.8819,2.8819,2.8822,2.8822,2.8879,2.8821,2.8821,2.882,2.882,0,2.9041,2.9045,2.9008,2.9008,2.9013,2.8983,2.8988,2.8971,2.8954,2.895,2.8921,2.8918,2.8883,2.8876,2.8855,2.8854,2.8851,2.884,2.8834,2.8842,2.8843,2.8836,2.8832,2.8822,2.8821,2.8821,2.8821,0,2.9094,2.9069,2.9069,2.9041,2.9034,2.9038,2.9013,2.9012,2.8993,2.8989,2.8987,2.8956,2.8947,2.8919,2.8903,2.8888,2.8893,2.8883,2.89,2.8896,2.8911,2.8909,2.8964,2.897,2.8909,2.891,2.8911,0,2.9122,2.9125,2.9097,2.9093,2.9082,2.9076,2.9069,2.9039,2.9033,2.9012,2.9013,2.9002,2.8991,2.8977,2.8953,2.894,2.8928,2.8948,2.8926,2.8933,2.8927,2.8926,2.8926,2.8953,2.8954,2.8954,2.8955,0,2.9172,2.916,2.9151,2.9139,2.9131,2.912,2.9106,2.9105,2.9072,2.9066,2.9057,2.9048,2.9032,2.902,2.9003,2.8989,2.8966,2.8963,2.8965,2.8972,2.8981,2.8975,2.8912,2.8961,2.896,2.896,2.896,2.8959,2.9212,2.9213,2.9194,2.9185,2.9173,2.9161,2.9159,2.914,2.9132,2.9116,2.91,2.9092,2.9072,2.9048,2.9035,2.9028,2.9016,2.902,2.902,2.9021,2.9024,2.8984,2.9025,2.9025,2.9025,2.9025,2.9024,0,2.926,2.9247,2.9239,2.9222,2.9215,2.9196,2.918,2.9175,2.9169,2.9153,2.9143,2.9132,2.9121,2.9097,2.9083,2.9082,2.9071,2.9079,2.9078,2.9075,2.9037,2.9035,2.9088,2.9088,2.9088,2.9088,2.9088,2.9088,2.9284,2.9285,2.927,2.9264,2.925,2.9243,2.9235,2.9224,2.9211,2.9201,2.9191,2.9176,2.9157,2.9141,2.913,2.9123,2.9119,2.913,2.912,2.9084,2.9078,2.9072,2.9071,2.913,2.913,2.9159,2.9159,2.9159]}]]